Location: Unspecified
(0.0000°N, 0.0000°E)
Time: 17:24:47
(UTC+00:00)

ARIANE 6 FM1 Upper Stage - Pass Details

Date: 12 May 2026
Orbit: 526 x 601 km, 62.0° (Epoch: 21 May)

Event Time Altitude Azimuth Distance (km) Brightness Sun altitude
Rises 19:55:29 0° 342° (NNW) 2,653 6.6 -28.1°
Reaches altitude 10° 19:57:41 10° 346° (NNW) 1,774 5.6 -28.6°
Enters shadow 19:58:39 17° 350° (N) 1,397 5.0 -28.9°
